Tracking 29892 objects as of 21-Nov-2024
HD Live streaming from Space Station
objects crossing your sky now

THORAD DELTA 1 DEB

Track THORAD DELTA 1 DEB now!
10-day predictions


NORAD ID: 8159
Int'l Code: 1974-089Z
Perigee: 1,395.6 km
Apogee: 1,405.9 km
Inclination: 101.4 °
Period: 113.6 minutes
Semi major axis: 7771 km
RCS: 0.0957 m2 (small)
Launch date: November 15, 1974
Source: United States (US)
Launch site: AIR FORCE WESTERN TEST RANGE (AFWTR)

Note: This is SATELLITE DEBRIS
Your satellite tracking list
Your tracking list is empty




NASA's NSSDC Master Catalog

Two Line Element Set (TLE):
1  8159U 74089Z   24325.50103016  .00000473  00000-0  27098-2 0  9995
2  8159 101.4187 344.0415 0006611 327.5377  32.5297 12.67148692286602
Source of the keplerian elements: AFSPC